Flag for Tanzania Weather past 2 weeks in Zanzibar City, Tanzania

Now
75 °F

Passing clouds.


Feels Like: 74 °F
Forecast: 79 / 86 °F
Wind: 6 mph from Southwest

Location: Mombasa Airport

Current Time: May 24, 2015 at 7:23:07 AM

Latest Report: May 24, 2015 at 6:00 AM


Visibility: N/A

Pressure: 29.95 "Hg

Humidity: 94%

Dew point: 73 °F

Location of Zanzibar CityLocation

Historic Weather in Zanzibar City — Graph

°F

Zanzibar City temperature yesterday

Maximum temperature yesterday: 86 °F (at 12:00 PM)
Minimum temperature yesterday: 73 °F (at 8:00 AM)
Average temperature yesterday: 80 °F

Past Weeks' High & Low Weather Summary

 TemperatureHumidityPressure
High88 °F (May 13, 12:00 PM)100% (May 15, 2:00 AM)30.04 "Hg (May 15, 2:00 AM)
Low73 °F (May 23, 8:00 AM)52% (May 18, 2:00 PM)29.86 "Hg (May 10, 3:00 PM)
Average80 °F81%29.96 "Hg
* Reported May 9 5:00 AM — May 24 5:00 AM, Zanzibar City, Weather by CustomWeather, © 2015

Note: Actual official high and low records may vary slightly from our data, if they occured in-between our weather recording intervals... More about our weather records

Advertising

Zanzibar City weather history for previous 24 hours

 ConditionsComfort  
Time TempWeatherWind HumidityBarometerVisibility
5:00 AM
Sun, May 24
75 °FThunderstorms. Overcast.6 mph94%29.95 "HgN/A
3:00 AM75 °FPassing clouds.7 mph94%29.92 "HgN/A
2:00 AM77 °FPassing clouds.8 mph89%29.98 "HgN/A
12:00 AM77 °FPassing clouds.7 mph89%29.98 "HgN/A
11:00 PM
Sat, May 23
79 °FPassing clouds.7 mph84%29.98 "HgN/A
10:00 PM79 °FPassing clouds.7 mph84%29.98 "HgN/A
9:00 PM79 °FPassing clouds.9 mph84%29.98 "HgN/A
8:00 PM79 °FPassing clouds.6 mph89%29.95 "HgN/A
7:00 PM81 °FPassing clouds.9 mph79%29.95 "HgN/A
6:00 PM82 °FPassing clouds.9 mph74%29.92 "HgN/A
5:00 PM81 °FScattered clouds.9 mph79%29.92 "HgN/A
4:00 PM84 °FScattered clouds.13 mph66%29.92 "HgN/A
3:00 PM86 °FScattered clouds.13 mph62%29.92 "HgN/A
2:00 PM86 °FScattered clouds.13 mph66%29.95 "HgN/A
1:00 PM82 °FPartly sunny.9 mph74%29.95 "HgN/A
12:00 PM86 °FScattered clouds.14 mph66%29.98 "HgN/A
11:00 AM84 °FScattered clouds.10 mph74%30.01 "HgN/A
10:00 AM81 °FPartly sunny.10 mph79%30.01 "HgN/A
9:00 AM75 °FBroken clouds.10 mph89%30.01 "HgN/A
8:00 AM73 °FBroken clouds.13 mph94%30.04 "HgN/A
7:00 AM75 °FScattered clouds.6 mph94%29.98 "HgN/A
Weather by CustomWeather, © 2015

See weather overviewHow to use our weather pages